Location: Killam
(52.7910°N, 111.8608°W)
Time: 04:44:35
(UTC+00:00)

Transit 2A - Pass Details

Date: 21 February 2026
Orbit: 590 x 954 km, 66.7° (Epoch: 14 March)

Event Time Altitude Azimuth Distance (km) Brightness Sun altitude
Rises 01:35:59 0° 314° (NW) 3,631 10.1 -7.7°
Reaches altitude 10° 01:38:55 10° 324° (NW) 2,664 9.2 -8.1°
Maximum altitude 01:44:26 32° 26° (NNE) 1,521 7.3 -8.9°
Enters shadow 01:49:10 12° 86° (E) 2,358 7.8 -9.6°
